Date String (YYYY-MM-DD hh:mm:ss) UTC,Instrument flags,Ambient pressure (hPa),Sample flow (lpm),Bypass flow (lpm),Sample temperature (°C),Ambient temperature (°C),ASC tube jacket temperature (°C),LED temperature (°C),Box temperature (°C),Sample RH (%),Span deviation,Mass concentration (μg/m³),Mass concentration (μg/m³),Mass concentration (μg/m³)
DateTimeUTC,F1_M11,P_M11,Q1_M11,Q2_M11,T1_M11,T2_M11,T3_M11,T4_M11,T5_M11,U1_M11,ZSPAN_M11,X0_M11,X2_M11,X1_M11
2021-11-26 02:00:00,,0832.2,5.01,0.00,27.5,26.7,00.0,36.6,29.2,06.2,0000.0,0002.92,0000.95,0000.62
2021-11-26 02:01:00,,0832.1,5.01,0.00,27.5,26.7,00.0,36.5,29.2,06.2,0000.0,0004.32,0000.98,0000.63
2021-11-26 02:02:00,,0832.2,4.99,0.00,27.4,26.6,00.0,36.5,29.2,06.1,0000.0,0004.32,0000.98,0000.64
2021-11-26 02:03:00,,0832.1,5.01,0.00,27.4,26.6,00.0,36.5,29.1,06.1,0000.0,0003.72,0000.96,0000.64
2021-11-26 02:04:00,,0832.1,5.00,0.00,27.4,26.6,00.0,36.5,29.1,06.2,0000.0,0003.28,0000.92,0000.64
2021-11-26 02:05:00,,0832.1,4.99,0.00,27.4,26.6,00.0,36.5,29.1,06.2,0000.0,0003.38,0000.97,0000.65
2021-11-26 02:06:00,,0832.2,5.01,0.00,27.4,26.6,00.0,36.5,29.1,06.2,0000.0,0003.42,0000.99,0000.65
2021-11-26 02:07:00,,0832.2,5.00,0.00,27.4,26.6,00.0,36.5,29.2,06.2,0000.0,0003.55,0001.02,0000.64
2021-11-26 02:08:00,,0832.1,5.01,0.00,27.4,26.6,00.0,36.5,29.2,06.2,0000.0,0003.61,0001.05,0000.65
2021-11-26 02:09:00,,0832.2,4.99,0.00,27.4,26.6,00.0,36.5,29.2,06.2,0000.0,0003.69,0001.04,0000.65
2021-11-26 02:10:00,,0832.2,5.02,0.00,27.4,26.7,00.0,36.5,29.2,06.2,0000.0,0003.25,0001.02,0000.64
2021-11-26 02:11:00,,0832.2,4.99,0.00,27.5,26.7,00.0,36.5,29.3,06.2,0000.0,0003.27,0001.06,0000.64
2021-11-26 02:12:00,,0832.2,5.01,0.00,27.5,26.7,00.0,36.5,29.3,06.2,0000.0,0002.07,0001.08,0000.63
2021-11-26 02:13:00,,0832.2,5.00,0.00,27.5,26.7,00.0,36.5,29.3,06.4,0000.0,0002.17,0001.06,0000.62
2021-11-26 02:14:00,,0832.2,5.00,0.00,27.5,26.7,00.0,36.5,29.3,06.4,0000.0,0002.47,0001.09,0000.62
2021-11-26 02:15:00,,0832.1,5.00,0.00,27.5,26.7,00.0,36.5,29.3,06.5,0000.0,0002.57,0001.12,0000.61
2021-11-26 02:16:00,,0832.1,4.99,0.00,27.4,26.7,00.0,36.5,29.2,06.6,0000.0,0002.53,0001.09,0000.60
2021-11-26 02:17:00,,0832.1,5.01,0.00,27.4,26.6,00.0,36.5,29.2,06.6,0000.0,0002.49,0001.07,0000.59
2021-11-26 02:18:00,,0832.2,5.01,0.00,27.4,26.6,00.0,36.5,29.2,06.6,0000.0,0002.35,0001.04,0000.59
2021-11-26 02:19:00,,0832.2,5.00,0.00,27.4,26.6,00.0,36.5,29.2,06.6,0000.0,0002.30,0001.02,0000.58
2021-11-26 02:20:00,,0832.2,5.01,0.00,27.4,26.7,00.0,36.5,29.2,06.5,0000.0,0002.24,0001.01,0000.57
2021-11-26 02:21:00,,0832.2,4.99,0.00,27.4,26.7,00.0,36.5,29.3,06.4,0000.0,0002.28,0001.03,0000.57
2021-11-26 02:22:00,,0832.1,4.99,0.00,27.5,26.7,00.0,36.5,29.3,06.4,0000.0,0002.21,0000.97,0000.57
2021-11-26 02:23:00,,0832.2,5.01,0.00,27.5,26.7,00.0,36.5,29.3,06.4,0000.0,0002.02,0000.92,0000.56
2021-11-26 02:24:00,,0832.1,4.99,0.00,27.5,26.7,00.0,36.5,29.3,06.4,0000.0,0001.98,0000.92,0000.56
2021-11-26 02:25:00,,0832.1,5.01,0.00,27.5,26.7,00.0,36.5,29.3,06.4,0000.0,0001.61,0000.90,0000.57
2021-11-26 02:26:00,,0832.1,5.00,0.00,27.5,26.7,00.0,36.5,29.3,06.4,0000.0,0001.57,0000.89,0000.57
2021-11-26 02:27:00,,0832.1,4.98,0.00,27.5,26.7,00.0,36.5,29.3,06.4,0000.0,0001.51,0000.86,0000.58
2021-11-26 02:28:00,,0832.0,5.00,0.00,27.5,26.8,00.0,36.5,29.3,06.4,0000.0,0001.48,0000.86,0000.59
2021-11-26 02:29:00,,0832.1,5.00,0.00,27.5,26.8,00.0,36.5,29.3,06.4,0000.0,0001.47,0000.87,0000.61
2021-11-26 02:30:00,,0832.1,5.00,0.00,27.5,26.8,00.0,36.5,29.4,06.4,0000.0,0001.50,0000.87,0000.61
2021-11-26 02:31:00,,0832.1,5.01,0.00,27.6,26.8,00.0,36.5,29.4,06.4,0000.0,0001.43,0000.85,0000.61
2021-11-26 02:32:00,,0832.2,5.00,0.00,27.6,26.8,00.0,36.5,29.4,06.4,0000.0,0001.38,0000.84,0000.62
2021-11-26 02:33:00,,0832.1,4.98,0.00,27.6,26.8,00.0,36.5,29.4,06.4,0000.0,0001.42,0000.86,0000.63
2021-11-26 02:34:00,,0832.0,5.01,0.00,27.6,26.8,00.0,36.5,29.4,06.4,0000.0,0001.48,0000.88,0000.63
2021-11-26 02:35:00,,0832.0,5.00,0.00,27.6,26.8,00.0,36.5,29.3,06.4,0000.0,0001.51,0000.89,0000.64
2021-11-26 02:36:00,,0832.0,5.00,0.00,27.5,26.7,00.0,36.5,29.3,06.4,0000.0,0001.55,0000.92,0000.64
2021-11-26 02:37:00,,0832.0,5.01,0.00,27.5,26.6,00.0,36.5,29.2,06.5,0000.0,0001.54,0000.92,0000.65
2021-11-26 02:38:00,,0831.9,4.99,0.00,27.4,26.6,00.0,36.5,29.1,06.5,0000.0,0001.49,0000.92,0000.65
2021-11-26 02:39:00,,0831.9,5.01,0.00,27.4,26.5,00.0,36.5,29.1,06.6,0000.0,0001.47,0000.90,0000.65
2021-11-26 02:40:00,,0831.9,5.01,0.00,27.4,26.5,00.0,36.5,29.0,06.5,0000.0,0001.52,0000.92,0000.64
2021-11-26 02:41:00,,0832.0,4.99,0.00,27.3,26.4,00.0,36.4,29.0,06.5,0000.0,0001.50,0000.91,0000.64
2021-11-26 02:42:00,,0832.0,5.01,0.00,27.3,26.4,00.0,36.4,29.0,06.5,0000.0,0001.53,0000.92,0000.64
2021-11-26 02:43:00,,0831.9,5.00,0.00,27.3,26.3,00.0,36.4,28.9,06.4,0000.0,0001.55,0000.92,0000.65
2021-11-26 02:44:00,,0831.9,5.00,0.00,27.2,26.3,00.0,36.4,28.9,06.4,0000.0,0001.59,0000.94,0000.64
2021-11-26 02:45:00,,0832.0,5.00,0.00,27.2,26.3,00.0,36.4,28.8,06.4,0000.0,0001.53,0000.92,0000.64
2021-11-26 02:46:00,,0832.0,4.99,0.00,27.1,26.2,00.0,36.3,28.8,06.4,0000.0,0001.47,0000.90,0000.64
2021-11-26 02:47:00,,0832.0,5.01,0.00,27.1,26.2,00.0,36.3,28.8,06.4,0000.0,0001.40,0000.87,0000.64
2021-11-26 02:48:00,,0831.9,4.99,0.00,27.1,26.1,00.0,36.3,28.7,06.4,0000.0,0001.46,0000.87,0000.64
2021-11-26 02:49:00,,0831.8,5.01,0.00,27.0,26.1,00.0,36.3,28.7,06.4,0000.0,0001.55,0000.89,0000.64
2021-11-26 02:50:00,,0831.8,5.00,0.00,27.0,26.1,00.0,36.2,28.7,06.4,0000.0,0001.60,0000.92,0000.65
2021-11-26 02:51:00,,0831.8,4.99,0.00,26.9,26.0,00.0,36.2,28.6,06.4,0000.0,0001.65,0000.96,0000.66
2021-11-26 02:52:00,,0831.7,4.99,0.00,26.9,26.0,00.0,36.2,28.5,06.5,0000.0,0001.73,0000.99,0000.66
2021-11-26 02:53:00,,0831.7,5.00,0.00,26.9,26.0,00.0,36.1,28.5,06.5,0000.0,0001.72,0000.99,0000.67
2021-11-26 02:54:00,,0831.7,5.00,0.00,26.8,26.0,00.0,36.1,28.5,06.6,0000.0,0001.62,0000.95,0000.66
2021-11-26 02:55:00,,0831.7,5.00,0.00,26.8,25.9,00.0,36.1,28.5,06.7,0000.0,0001.48,0000.91,0000.66
2021-11-26 02:56:00,,0831.7,5.00,0.00,26.8,25.9,00.0,36.1,28.5,06.7,0000.0,0001.49,0000.92,0000.66
2021-11-26 02:57:00,,0831.7,4.99,0.00,26.8,25.9,00.0,36.0,28.5,06.6,0000.0,0001.56,0000.94,0000.67
2021-11-26 02:58:00,,0831.7,5.00,0.00,26.8,25.8,00.0,36.0,28.4,06.5,0000.0,0001.64,0000.97,0000.67
2021-11-26 02:59:00,,0831.7,5.01,0.00,26.7,25.8,00.0,36.0,28.4,06.5,0000.0,0001.73,0001.02,0000.67
